EHI
0 0 0 0 0 0 0 0 0 0 0 0 0 0 0 0 0 0 0 0 0 0 0 0 0 0 0 0 0 0 0 0 0 0 0 0 0 0 0 0 0 0 0 0
0 0 0 0 0 0 0 0 0 0 0 0 0 0 0 0 0 0 0 0 0 0 0 0 0 0 0 0 0 0 0 0 0 0 0 0 0 0 0 0 0 0 0 0
0 0 0 0 0 0 0 0 0 0 0 0 0 0 0 0 0 0 0 0 0 0 0 0 0 0 0 0 0 0 0 0 0 0 0 0 0 0 0 0 0 0 0 0
0 0 0 0 0 0 0 0 0 0 0 0 0 0 0 0 0 0 0 0 0 0 0 0 0 0 0 0 0 0 0 0 0 0 0 0 0 0 0 0 0 0 0 0
0 0 0 0 0 0 0 0 0 0 0 0 0 0 0 0 0 0 0 0 0 0 0 0 0 0 0 0 0 0 0 0 0 0 0 0 0 0 0 0 0 0 0 0
0 0 0 0 0 0 0 0 0 0 0 0 0 0 0 0 0 0 0 0 0 0 0 0 0 0 0 0 0 0 0 0 0 0 0 0 0 0 0 0 0 0 0 0
0 0 0 0 0 0 0 0 0 0 0 0 0 0 0 0 0 0 0 0 0 0 0 0 0 0 0 0 0 0 0 0 0 0 0 0 0 0 0 0 0 0 0 0
0 0 0 0 0 0 0 0 0 0 0 0 0 0 0 0 0 0 0 0 0 0 0 0 0 0 0 0 0 0 0 0 0 0 0 0 0 0 0 0 0 0 0 0
0 0 0 0 0 0 0 0 0 0 0 0 0 0 0 0 0 0 0 0 0 0 0 0 0 0 0 0 0 0 0 0 0 0 0 0 0 0 0 0 0 0 0 0
0 0 0 0 0 0 0 0 0 0 0 0 0 0 0 0 0 0 0 0 0 0 0 0 0 0 0 0 0 0 0 0 0 0 0 0 0 0 0 0 0 0 0 0
0 0 0 0 0 0 0 0 0 0 0 0 0 0 0 0 0 0 0 0 0 0 0 0 0 0 0 0 0 0 0 0 0 0 0 0 0 0 0 0 0 0 0 0
0 0 0 0 0 0 0 0 0 0 0 0 0 0 0 0 0 0 0 0 0 0 0 0 0 0 0 0 0 0 0 0 0 0 0 0 0 0 0 0 0 0 0 0
0 0 0 0 0 0 0 0 0 0 0 0 0 0 0 0 0 0 0 0 0 0 0 0 0 0 0 0 0 0 0 0 0 0 0 0 0 0 0 0 0 0 0 0
0 0 0 0 0 0 0 0 0 0 0 0 0 0 0 0 0 0 0 0 0 0 0 0 0 0 0 0 0 0 0 0 0 0 0 0 0 0 0 0 0 0 0 0
0 0 0 0 0 0 0 0 0 0 0 0 0 0 0 0 0 0 0 0 0 0 0 0 0 0 0 0 0 0 0 0 0 0 0 0 0 0 0 0 0 0 0 0
0 0 0 0 0 0 0 0 0 0 0 0 0 0 0 0 0 0 0 0 0 0 0 0 0 0 0 0 0 0 0 0 0 0 0 0 0 0 0 0 0 0 0 0
0 0 0 0 0 0 0 0 0 0 0 0 0 0 0 0 0 0 0 0 0 0 0 0 0 0 0 0 0 0 0 0 0 0 0 0 0 0 0 0 0 0 0 0
0 0 0 0 0 0 0 0 0 0 0 0 0 0 0 0 0 0 0 0 0 0 0 0 0 0 0 0 0 0 0 0 0 0 0 0 0 0 0 0 0 0 0 0
0 0 0 0 0 0 0 0 0 0 0 0 0 0 0 0 0 0 0 0 0 0 0 0 0 0 0 0 0 0 0 0 0 0 0 0 0 0 0 0 0 0 0 0
0 0 0 0 0 0 0 0 0 0 0 0 0 0 0 0 0 0 0 0 0 0 0 0 0 0 0 0 0 0 0 0 0 0 0 0 0 0 0 0 0 0 0 0
0 0 0 0 0 0 0 0 0 0 0 0 0 0 0 0 0 0 0 0 0 0 0 0 0 0 0 0 0 0 0 0 0 0 0 0 0 0 0 0 0 0 0 0
0 0 0 0 0 0 0 0 0 0 0 0 0 0 0 0 0 0 0 0 0 0 0 0 0 0 0 0 0 0 0 0 0 0 0 0 0 0 0 0 0 0 0 0
0 0 0 0 0 0 0 0 0 0 0 0 0 0 0 0 0 0 0 0 0 0 0 0 0 0 0 0 0 0 0 0 0 0 0 0 0 0 0 0 0 0 0 0
0 0 0 0 0 0 0 0 0 0 0 0 0 0 0 0 0 0 0 0 0 0 0 0 0 0 0 0 0 0 0 0 0 0 0 0 0 0 0 0 0 0 0 0
0 0 0 0 0 0 0 0 0 0 0 0 0 0 0 0 0 0 0 0 0 0 0 0 0 0 0 0 0 0 0 0 0 0 0 0 0 0 0 0 0 0 0 0
0 0 0 0 0 0 0 0 0 0 0 0 0 0 0 0 0 0 0 0 0 0 0 0 0 0 0 0 0 0 0 0 0 0 0 0 0 0 0 0 0 0 0 0
Wind_Speed
3 6 8 7 8 5 4 6 8 5 1 4 6 6 3 2 7 9 9 9 10 11 11 11 11 12 12 11 9 8 6 4 3 2 2 2 3 4 5 6 8 9 10 10
5 10 7 3 4 6 7 8 8 4 1 4 5 5 2 5 8 8 9 10 10 11 11 11 12 12 13 12 10 9 7 5 3 1 1 1 2 3 4 5 6 8 9 10
12 2 4 6 6 7 8 9 7 4 2 3 5 4 6 7 7 6 6 7 8 9 11 11 11 12 12 11 10 8 8 6 4 2 1 1 2 3 3 4 4 6 7 9
8 3 5 7 8 9 8 6 6 4 5 3 3 4 9 12 11 9 9 8 9 9 9 9 10 10 10 9 8 8 8 7 5 2 0 2 2 3 4 4 4 6 6 7
7 6 7 8 6 8 3 3 3 3 5 6 5 7 7 13 15 14 12 10 9 8 8 8 8 8 8 7 7 7 7 7 5 3 2 2 3 4 4 5 6 6 5 6
6 3 5 3 2 4 6 5 3 2 4 7 4 7 6 12 18 18 15 12 10 9 7 7 7 7 7 6 6 6 6 6 5 4 3 3 5 6 6 7 6 6 5 5
8 7 5 4 5 5 6 6 4 5 6 3 3 6 5 6 9 15 17 14 12 9 8 8 7 6 6 5 5 5 5 5 5 5 4 4 5 6 7 7 7 7 6 6
7 7 9 8 8 7 8 6 5 4 3 1 4 7 1 4 3 6 11 13 12 10 8 7 6 5 5 4 4 4 5 5 5 5 5 5 5 5 5 7 7 8 7 7
8 4 4 2 1 5 7 6 2 3 1 5 5 4 3 4 5 8 11 13 12 10 9 8 6 5 4 3 4 4 4 4 5 5 6 6 6 6 7 8 8 7 8 8
6 4 4 4 4 3 2 5 5 5 5 5 4 5 4 8 8 10 13 14 12 10 9 8 6 4 3 3 3 3 4 4 5 6 6 5 7 7 8 8 9 10 10 10
6 6 5 5 8 8 7 5 5 3 3 5 5 3 1 5 8 11 13 13 12 11 9 7 5 4 3 2 2 3 3 4 5 6 7 7 8 8 9 9 10 10 11 12
7 5 5 4 2 2 5 6 8 6 6 5 5 4 4 3 6 9 11 10 9 9 8 6 5 3 2 2 2 3 4 5 6 7 8 8 9 9 10 10 11 12 12 13
9 7 6 5 5 5 5 5 6 4 3 6 7 6 5 4 6 8 9 10 9 8 7 6 4 2 1 2 3 3 4 5 6 7 8 9 10 10 11 12 12 13 13 14
5 6 8 7 2 7 7 8 9 10 8 9 13 13 5 7 9 9 9 10 9 8 6 4 2 1 1 2 3 4 5 6 7 8 9 10 11 11 12 13 13 14 14 15
5 6 6 4 1 4 7 9 13 15 15 14 15 16 13 9 10 9 10 10 9 7 5 3 1 1 2 3 4 5 6 7 8 9 10 10 11 12 12 13 14 15 15 15
5 5 4 4 2 4 7 12 15 17 18 19 20 19 9 3 5 8 10 10 9 7 4 2 1 2 3 4 5 6 7 8 9 10 11 11 12 12 13 14 15 15 16 16
7 7 6 5 2 3 12 13 17 13 13 13 16 12 4 6 7 8 9 9 8 5 3 2 2 3 4 5 6 8 9 9 10 11 12 12 12 13 14 15 16 16 17 17
8 7 4 3 4 11 5 2 5 10 12 12 10 4 6 6 5 4 5 7 6 4 3 2 2 3 4 5 7 8 9 10 11 12 12 13 13 14 15 16 16 17 16 16
4 7 5 5 7 11 6 4 6 8 8 9 10 8 8 7 6 5 5 5 4 3 2 2 3 4 6 7 8 9 10 11 12 13 13 13 14 15 16 17 17 17 16 16
2 4 6 6 7 10 3 4 4 3 7 6 9 11 11 9 7 5 7 4 3 2 2 2 4 5 7 7 8 10 11 12 13 13 14 14 15 15 16 17 18 16 16 16
7 7 10 11 11 11 1 6 7 6 3 7 10 11 11 8 2 6 6 4 2 2 2 3 5 6 7 8 9 11 12 13 13 14 14 15 15 16 16 17 16 16 16 16
11 10 10 9 10 10 7 9 9 2 4 8 9 9 8 6 5 5 4 3 2 2 3 5 6 8 8 9 10 12 13 14 14 14 15 15 16 14 13 16 16 16 16 16
10 8 6 10 6 2 6 5 1 3 6 6 7 7 7 6 5 4 3 2 3 4 5 6 7 9 10 10 10 13 14 14 14 15 16 16 16 15 14 15 16 15 13 12
7 3 5 6 6 4 4 3 3 5 5 6 6 7 7 6 5 4 3 3 4 5 6 7 9 11 12 12 12 13 14 14 15 16 16 15 15 15 14 12 12 12 12 12
6 8 6 7 3 3 5 6 6 6 7 8 7 6 6 6 4 3 3 4 5 6 7 8 9 11 13 13 14 14 14 14 15 16 15 15 14 14 14 13 11 13 13 14
7 9 9 7 7 7 6 8 9 9 8 9 8 6 5 4 4 4 4 5 6 7 8 9 11 13 14 14 15 14 14 14 15 14 14 12 11 12 12 13 13 15 18 23
Wind_Direction
163 227 243 249 241 270 261 258 266 275 317 275 265 275 290 155 159 143 126 110 96 84 77 71 71 73 76 75 77 81 91 110 139 159 195 224 243 248 248 251 255 254 253 250
210 244 263 252 199 216 233 251 263 262 185 267 282 279 165 154 151 139 131 119 110 105 92 80 77 74 72 71 71 74 78 89 111 137 193 253 275 275 276 266 263 261 259 255
238 256 128 165 180 207 228 242 258 268 236 208 274 206 162 154 149 142 137 128 119 110 103 94 85 78 73 66 64 67 69 76 83 106 175 239 260 264 260 271 274 272 268 262
243 221 187 217 226 225 246 237 239 239 262 239 264 241 173 173 173 170 161 151 134 124 113 103 95 84 77 72 69 69 69 67 68 79 14 306 304 307 314 311 298 292 279 271
219 191 196 218 227 207 216 108 178 228 251 264 218 246 177 178 190 184 175 163 150 138 125 114 104 95 87 79 73 71 71 65 59 53 28 325 316 316 314 311 304 303 294 281
245 195 219 218 103 168 139 136 127 182 225 243 200 229 197 190 201 187 179 173 164 153 142 129 119 113 99 87 77 70 68 62 50 40 22 353 337 325 320 318 316 311 304 294
224 216 201 173 151 155 191 219 229 215 212 223 136 239 250 170 196 192 183 177 171 163 158 149 141 128 108 90 76 66 58 50 37 25 11 357 340 327 320 320 316 312 307 303
214 207 188 193 211 193 198 231 256 276 274 237 187 240 197 126 175 205 190 176 170 169 163 153 143 131 113 92 73 58 43 32 19 6 356 347 337 322 318 315 309 305 302 303
215 193 109 160 189 194 175 206 295 285 285 270 240 251 238 157 182 186 184 178 175 173 167 160 148 136 115 88 62 40 24 12 2 350 340 335 331 322 315 309 303 299 297 299
214 184 145 137 139 52 296 150 171 217 248 257 252 245 224 183 184 177 180 181 177 172 168 162 153 138 111 78 53 31 13 358 348 338 335 323 319 318 312 305 303 301 300 298
205 198 155 181 208 191 162 180 203 206 265 268 273 252 115 189 178 177 178 180 177 174 169 163 152 134 112 85 49 23 2 347 339 333 326 319 318 315 309 304 303 303 300 298
190 211 188 176 88 317 225 209 195 221 218 234 273 275 101 193 185 181 176 174 171 167 163 157 150 140 120 59 18 0 347 339 334 327 320 317 315 312 308 306 306 304 300 298
161 190 182 173 177 181 210 203 212 230 240 224 242 252 112 165 176 181 179 171 165 161 159 155 151 139 87 9 347 340 334 330 326 323 318 316 314 313 310 309 307 304 301 298
174 200 228 240 175 167 191 196 197 204 227 237 238 257 219 201 192 185 183 177 168 161 157 154 148 118 22 334 329 324 322 323 321 317 314 312 313 313 310 308 305 303 301 299
198 222 229 257 162 189 214 210 201 215 235 251 261 263 262 239 219 202 183 172 168 164 160 155 155 331 316 316 314 315 316 317 316 312 309 308 309 309 306 305 303 302 300 297
199 213 193 219 195 227 247 241 229 233 243 251 263 269 281 251 211 193 178 172 174 170 166 169 214 283 296 306 309 309 310 313 310 306 305 307 306 306 305 304 304 302 300 299
180 176 197 236 168 253 252 239 229 226 227 237 251 266 172 180 186 184 177 175 176 173 175 204 258 280 292 303 305 305 307 307 304 303 303 304 305 304 304 304 303 302 302 300
174 179 211 208 187 240 257 103 224 230 240 234 244 218 177 166 143 148 168 172 170 170 192 232 269 282 290 296 297 299 300 301 301 301 303 305 306 304 304 304 303 303 303 301
207 180 182 195 238 263 260 203 191 214 251 222 218 192 156 135 140 149 152 158 163 173 214 259 275 283 287 291 297 299 299 300 300 302 305 307 306 304 303 303 303 305 303 301
151 209 202 193 225 248 244 129 152 193 256 189 186 171 159 164 194 172 155 158 164 185 220 257 275 282 285 295 302 299 300 302 303 306 306 306 305 303 302 302 303 303 301 300
166 191 214 221 236 259 152 137 161 215 288 147 170 167 168 184 153 117 143 159 178 217 252 271 280 285 293 301 301 297 299 300 305 306 303 302 302 301 301 301 301 302 302 300
179 183 199 205 224 242 144 159 200 241 106 153 162 164 167 154 127 137 156 171 206 248 272 285 290 294 299 301 300 297 299 305 307 305 302 301 302 302 301 301 302 303 303 302
209 203 195 202 218 60 161 194 165 134 156 160 160 159 156 156 162 163 178 208 246 272 285 291 294 297 298 300 299 298 303 308 307 304 302 302 303 302 301 302 303 303 302 300
208 194 197 222 234 208 199 193 177 169 159 147 146 149 156 160 163 178 207 240 263 277 287 293 295 296 300 304 304 301 304 306 304 303 303 304 304 303 303 301 299 299 300 300
180 173 200 228 221 191 205 196 171 150 137 133 132 141 152 156 172 201 235 257 272 282 288 291 292 295 299 305 304 304 306 307 304 302 302 303 303 302 303 301 298 297 292 292
180 185 193 222 196 191 185 172 164 155 153 150 145 145 153 172 192 225 253 269 279 286 291 292 294 297 301 304 303 304 306 306 303 302 303 303 303 301 301 301 300 292 289 295